Other Public Products
Issued by NWS Grand Forks, ND

Home | Current Version | Previous Version | Text Only | Print | Product List | Glossary On
Versions: 1 2 3 4 5 6 7 8 9 10 11 12 13 14 15 16 17 18 19 20 21 22 23 24 25 26 27 28 29 30 31 32 33 34 35 36 37 38 39 40 41 42 43 44 45 46 47 48 49 50
000
FPUS83 KFGF 311631
OPUFGF
PRAIRIE TO PINES WEATHER ROUNDUP
NATIONAL WEATHER SERVICE EASTERN NORTH DAKOTA/GRAND FORKS ND
1100 AM CDT THU JUL 31 2014

 **SATELLITE DATA USED TO AUGMENT SKY COVER AT AUTOMATED STATIONS**
 *****  WEATHER ACROSS EASTERN NORTH DAKOTA  *****

CITY           SKY/WX    TMP DP  RH WIND       PRES   REMARKS
GRAND FORKS    SUNNY     75  63  64 NW6       30.03R
GRAND FORKS AF SUNNY     75  65  70 VRB6      30.05R
GRAND CITY NWS   N/A     77 N/A N/A NW6         N/A
BUXTON           N/A     79  67  65 NW3         N/A
DEVILS LAKE    SUNNY     75  61  60 NW6       30.06S
FARGO          SUNNY     77  58  51 W5        30.04S
WAHPETON ARPT  SUNNY     73  57  56 CALM      30.06S
$$

 *****  WEATHER ACROSS CENTRAL AND WESTERN NORTH DAKOTA  *****

CITY           SKY/WX    TMP DP  RH WIND       PRES   REMARKS
JAMESTOWN      SUNNY     76  59  55 N7        30.08S
BISMARCK       SUNNY     77  59  53 CALM      30.09F
MINOT          NOT AVBL
MINOT AFB      SUNNY     74  58  58 VRB1      30.08S
GARRISON         N/A     75  57  53 SE6       30.09S
WILLISTON      MOSUNNY   74  56  53 S12       30.05F
DICKINSON      MOSUNNY   75  55  49 S7        30.10S
HETTINGER      MOSUNNY   75  50  41 SW5       30.13F
$$

 *****  OTHER OBSERVATIONS NORTHEAST NORTH DAKOTA  *****

CITY           SKY/WX    TMP DP  RH WIND       PRES   REMARKS
WALHALLA       FAIR      77  64  65 CALM        N/A
LANGDON        FAIR      75  63  64 NW6       30.07S
CAVALIER       FAIR      75  64  69 NW3       30.03S
GRAFTON        FAIR      75  63  64 NW5       30.03S
CANDO          FAIR      77  59  53 N3        30.08S
FORT TOTTEN      N/A     77  64  63 N2        29.95S
ROLLA            N/A     75  59  57 N6        30.10R
RUGBY          FAIR      75  63  64 CALM      30.08S
 ***** THE ABOVE OBSERVATIONS ARE NON NWS ARE NOT QUALITY
        CONTROLLED AND MAY MIS-REPORT RAIN FOR SNOW...
$$

 *****  OTHER OBSERVATIONS SOUTHEAST NORTH DAKOTA *****

CITY           SKY/WX    TMP DP  RH WIND       PRES   REMARKS
COOPERSTOWN    NOT AVBL
VALLEY CITY    FAIR      75  59  57 N6        30.08S
OAKES          NOT AVBL
GWINNER        SUNNY     79  57  47 N9        30.08S
SHEYENNE NWR     N/A     79  59  49 N3        29.95
BUFFALO          N/A     77  53  42 NW9         N/A
WYNDMERE       NOT AVBL
 ***** THE ABOVE OBSERVATIONS ARE NON NWS ARE NOT QUALITY
       CONTROLLED AND MAY MIS-REPORT RAIN FOR SNOW...
$$

  *****  WEATHER ACROSS NORTHERN MINNESOTA  *****

CITY           SKY/WX    TMP DP  RH WIND       PRES   REMARKS
FLAG ISLAND    SUNNY     73  55  53 N5        30.01R
WARROAD        SUNNY     73  61  64 E5        30.02S
ROSEAU         SUNNY     75  61  60 CALM      30.02S
HALLOCK        SUNNY     75  64  69 NW3       30.02S
THF RVR FALLS  SUNNY     75  61  60 NW8       30.04R
HALSTAD          N/A     77  59  54 NW3         N/A
FOSSTON        SUNNY     73  63  68 NW7       30.04S
BAUDETTE       SUNNY     75  57  53 NW7       30.02S
WASKISH        SUNNY     72  64  78 CALM      30.01S
CROOKSTON      SUNNY     73  64  73 NW6       30.04S
$$
  *****  WEATHER ACROSS CENTRAL AND WEST MINNESOTA  *****

CITY           SKY/WX    TMP DP  RH WIND       PRES   REMARKS
BEMIDJI        SUNNY     75  59  56 W9        30.02S
PARK RAPIDS    SUNNY     76  56  49 W10       30.04R
WADENA         SUNNY     75  57  53 NW8       30.05S
DETROIT LAKES  SUNNY     77  55  47 W7        30.07R
MOORHEAD       SUNNY     75  61  60 W5        30.05S
FERGUS FALLS   SUNNY     73  57  56 NW6       30.06S
ELBOW LAKE     FAIR      72  60  67 NW3       30.06S
MORRIS MN      SUNNY     77  61  57 NW5       30.05S
STAPLES        SUNNY     75  57  53 W7        30.05R
WHEATON        SUNNY     73  59  60 NW9       30.08S
$$
  *****  WEATHER ELSEWHERE ACROSS MINNESOTA  *****

CITY           SKY/WX    TMP DP  RH WIND       PRES   REMARKS
DULUTH         SUNNY     75  56  51 NW3       30.00S
INTRNTL FALLS  SUNNY     74  56  53 N9        30.00S
ELY            SUNNY     70  54  56 NW6       29.99S
CLOQUET        SUNNY     73  57  56 W5        30.00S
BRAINERD       SUNNY     73  57  57 NW9       30.03S
HIBBING        SUNNY     75  55  49 NW7       30.00S
ALEXANDRIA     SUNNY     74  57  55 NW6       30.08R
SAINT CLOUD    SUNNY     78  56  46 NW7       30.04S
MINNEAPOLIS    MOSUNNY   77  54  44 W8        30.04S
$$

  *****  WEATHER ACROSS SOUTH DAKOTA  *****

CITY           SKY/WX    TMP DP  RH WIND       PRES   REMARKS
SIOUX FALLS    MOSUNNY   74  59  59 CALM      30.09S
BROOKINGS      NOT AVBL
WATERTOWN      SUNNY     76  51  41 VRB6      30.09R
HURON          MOSUNNY   74  60  61 CALM      30.08S
SISSETON         N/A     77  61  57 N7        30.06S
ABERDEEN       SUNNY     77  55  46 CALM      30.08S
MITCHELL       MOSUNNY   74  64  71 E6        30.08S
PIERRE         SUNNY     75  57  53 SE5       30.09F
MOBRIDGE       SUNNY     75  57  53 VRB3      30.07F
RAPID CITY     SUNNY     78  52  40 NE9       30.19R
$$

  *****  SOME WEATHER IN NEARBY STATES *****

CITY           SKY/WX    TMP DP  RH WIND       PRES   REMARKS
GLASGOW MT     MOSUNNY   84  48  28 S15       30.03F
GREAT FALLS MT SUNNY     77  45  32 SW5       30.15S
CHEYENNE WY    SUNNY     69  41  36 CALM      30.33S
SCOTTSBLUFF NE SUNNY     74  56  53 W6        30.23S
OMAHA NE       MOSUNNY   78  54  43 S6        30.11S
DES MOINES IA  MOSUNNY   77  60  55 W5        30.10S
DAVENPORT IA   SUNNY     76  62  62 W8        30.09S
CHICAGO IL     SUNNY     77  57  50 W9        30.04S
EAU CLAIRE WI  NOT AVBL
LA CROSSE WI   SUNNY     76  62  62 CALM      30.03F
$$

  *****  SOME NATIONAL WEATHER *****

CITY           SKY/WX    TMP DP  RH WIND       PRES   REMARKS
LA GUARDIA NY  MOSUNNY   79  55  43 SW16      30.09F
RALEIGH NC     CLOUDY    78  66  66 S8        30.15S
ATLANTA GA     CLOUDY    77  69  76 E8        30.08S
NEW ORLEANS LA PTSUNNY   87  67  51 NE8       30.04S HX  90
OKLAHOMA CITY  CLOUDY    72  66  83 N8        30.10R
ALBUQUERQUE NM PTSUNNY   71  58  63 SE9       30.28F
SALT LAKE CITY MOSUNNY   76  54  46 VRB6      30.19S
LOS ANGELES CA MOSUNNY   73  63  70 SE5       29.94S
BOISE ID       SUNNY     80  47  31 CALM      30.13S
SEATTLE WA     MOSUNNY   70  48  45 N7        30.13S
$$

*** WEATHER ACROSS MANITOBA...SASKATCHEWAN AND ONTARIO ***
                ***ONTARIO***

CITY           SKY/WX    TMP DP  RH WIND       PRES   REMARKS
GERALDTON      CLOUDY    59  52  77 NW9       29.87R
THUNDER BAY    MOSUNNY   72  52  49 NW13      29.92F
SIOUX LOOKOUT  MOSUNNY   66  48  52 N12G18    30.00S
TORONTO        MOSUNNY   70  54  56 W8        30.00S
BIG TROUT LK   PTSUNNY   63  48  59 N10G17    29.98R
PICKLE LAKE    PTSUNNY   59  50  72 N6        29.97F
DRYDEN         SUNNY     70  50  49 N8        30.01S
KENORA         CLOUDY    72  54  53 N8        30.04S
$$
                *** MANITOBA***

CITY           SKY/WX    TMP DP  RH WIND       PRES   REMARKS
BRANDON        MOSUNNY   75  59  57 VRB2      30.07S
DAUPHIN        SUNNY     73  59  60 SW2       30.07R
ISLAND LAKE    MOSUNNY   66  52  59 NE5       30.09S
PILOT MOUND      N/A     73  63  68 NW5         N/A
THE PAS        MOSUNNY   79  63  57 W7        30.01F
THOMPSON       MOSUNNY   72  57  60 SE6       30.06F
WINNIPEG       SUNNY     75  61  60 NW7       30.03S
LYNN LAKE      SUNNY     79  59  50 SE10      30.03F
CHURCHILL      MOSUNNY   66  50  55 SE5       30.10S
GILLAM         CLOUDY    64  54  68 N3        30.11S
$$
                ***SASKATCHEWAN***

CITY           SKY/WX    TMP DP  RH WIND       PRES   REMARKS
ESTEVAN        PTSUNNY  N/A N/A N/A E5          N/A  THUNDER
KINDERSLEY     PTSUNNY   70  64  83 E10       30.02F
LLOYDMINSTER   MOSUNNY   72  61  68 E9        30.08S
PRINCE ALBERT  MOSUNNY   77  63  61 VRB2      30.08S
REGINA         MOSUNNY   73  61  64 SE13      30.07S



USA.gov is the U.S. government's official web portal to all federal, state and local government web resources and services.